| time (UTC) | temp C | wind direction | speed KPH | gust KPH | rain 1hr cm | rain 24hr cm | rain mn cm | humidity % | barometer mb |
| 20260905183012 | -17 | 90 | 0.0 | 1.6 | 0.00 | 0.13 | 0.13 | 1018.3 | |
| 20260905182215 | -17 | 90 | 1.6 | 3.2 | 0.00 | 0.13 | 0.13 | 1018.1 | |
| 20260905181418 | -17 | 90 | 0.0 | 1.6 | 0.00 | 0.13 | 0.13 | 1018.0 | |
| 20260905180619 | -17 | 90 | 0.0 | 1.6 | 0.00 | 0.13 | 0.13 | 1017.9 | |
| 20260905175820 | -17 | 135 | 0.0 | 3.2 | 0.00 | 0.13 | 0.13 | 1017.6 | |
| 20260905175022 | -17 | 225 | 0.0 | 3.2 | 0.00 | 0.13 | 0.13 | 1017.5 | |
| 20260905174227 | -17 | 45 | 0.0 | 1.6 | 0.00 | 0.13 | 0.13 | 1017.4 | |
| 20260905173428 | -17 | 90 | 0.0 | 3.2 | 0.00 | 0.13 | 0.13 | 1017.2 | |
| 20260905172624 | -17 | 90 | 1.6 | 3.2 | 0.00 | 0.13 | 0.13 | 1017.0 | |
| 20260905171811 | -17 | 90 | 1.6 | 3.2 | 0.00 | 0.13 | 0.13 | 1016.9 | |
| 20260905171001 | -17 | 90 | 1.6 | 6.4 | 0.00 | 0.13 | 0.13 | 1016.7 | |
| 20260905170200 | -17 | 45 | 1.6 | 4.8 | 0.00 | 0.13 | 0.13 | 1016.5 | |
| 20260905165401 | -17 | 270 | 3.2 | 6.4 | 0.00 | 0.13 | 0.13 | 1016.3 | |
| 20260905164602 | -17 | 225 | 3.2 | 8.0 | 0.00 | 0.13 | 0.13 | 1016.1 | |
| 20260905163801 | -17 | 293 | 6.4 | 9.7 | 0.00 | 0.13 | 0.13 | 1016.1 | |
| 20260905163001 | -17 | 45 | 0.0 | 6.4 | 0.00 | 0.13 | 0.13 | 1016.0 | |
| 20260905162204 | -17 | 315 | 1.6 | 4.8 | 0.00 | 0.13 | 0.13 | 1016.0 | |
| 20260905161404 | -17 | 338 | 4.8 | 9.7 | 0.00 | 0.13 | 0.13 | 1015.8 | |
| 20260905160604 | -17 | 270 | 4.8 | 11.3 | 0.00 | 0.13 | 0.13 | 1015.5 | |
| 20260905155804 | -17 | 270 | 0.0 | 14.5 | 0.00 | 0.13 | 0.13 | 1015.4 | |
| 20260905155004 | -17 | 270 | 3.2 | 9.7 | 0.00 | 0.13 | 0.13 | 1015.1 | |
| 20260905154200 | -17 | 90 | 3.2 | 19.3 | 0.00 | 0.13 | 0.13 | 1015.0 | |
| 20260905153347 | -17 | 315 | 4.8 | 12.9 | 0.00 | 0.13 | 0.13 | 1015.2 | |
| 20260905152541 | -17 | 315 | 4.8 | 16.1 | 0.00 | 0.13 | 0.13 | 1015.3 | |
| 20260905151743 | -17 | 225 | 8.0 | 14.5 | 0.00 | 0.13 | 0.13 | 1015.4 | |
| 20260905150943 | -17 | 225 | 6.4 | 22.5 | 0.00 | 0.13 | 0.13 | 1015.1 | |
| 20260905150145 | -17 | 225 | 6.4 | 22.5 | 0.00 | 0.13 | 0.13 | 1015.0 | |
| 20260905145348 | -17 | 135 | 8.0 | 29.0 | 0.00 | 0.13 | 0.13 | 1014.9 | |
| 20260905144551 | -17 | 315 | 12.9 | 19.3 | 0.00 | 0.13 | 0.13 | 1014.7 | |
| 20260905143756 | -17 | 225 | 3.2 | 22.5 | 0.00 | 0.13 | 0.13 | 1014.8 | |
| 20260905142957 | -17 | 225 | 4.8 | 29.0 | 0.00 | 0.13 | 0.13 | 1014.7 | |
| 20260905142159 | -17 | 45 | 9.7 | 27.4 | 0.00 | 0.13 | 0.13 | 1014.9 | |
| 20260905141403 | -17 | 90 | 1.6 | 9.7 | 0.00 | 0.13 | 0.13 | 1014.8 | |
| 20260905140605 | -17 | 225 | 11.3 | 19.3 | 0.00 | 0.13 | 0.13 | 1015.0 | |
| 20260905135810 | -17 | 270 | 4.8 | 24.1 | 0.00 | 0.13 | 0.13 | 1015.0 | |
| 20260905135014 | -17 | 270 | 4.8 | 20.9 | 0.00 | 0.13 | 0.13 | 1014.9 | |
| 20260905134216 | -17 | 225 | 1.6 | 9.7 | 0.00 | 0.13 | 0.13 | 1015.0 | |
| 20260905133420 | -17 | 45 | 3.2 | 4.8 | 0.00 | 0.13 | 0.13 | 1015.5 | |
| 20260905132621 | -17 | 270 | 8.0 | 12.9 | 0.00 | 0.13 | 0.13 | 1015.5 | |
| 20260905131823 | -17 | 225 | 8.0 | 9.7 | 0.00 | 0.13 | 0.13 | 1015.6 | |
| 20260905131026 | -17 | 90 | 1.6 | 16.1 | 0.00 | 0.13 | 0.13 | 1015.5 | |
| 20260905130229 | -17 | 225 | 1.6 | 11.3 | 0.00 | 0.13 | 0.13 | 1015.7 | |
| 20260905125431 | -17 | 270 | 12.9 | 14.5 | 0.00 | 0.13 | 0.13 | 1015.6 | |
| 20260905124632 | -17 | 135 | 1.6 | 12.9 | 0.00 | 0.13 | 0.13 | 1015.6 | |
| 20260905123834 | -17 | 45 | 3.2 | 16.1 | 0.00 | 0.13 | 0.13 | 1015.5 | |
| 20260905123036 | -17 | 45 | 6.4 | 17.7 | 0.00 | 0.13 | 0.13 | 1015.7 | |
| 20260905122239 | -17 | 270 | 4.8 | 19.3 | 0.00 | 0.13 | 0.13 | 1015.6 | |
| 20260905121442 | -17 | 270 | 8.0 | 17.7 | 0.00 | 0.13 | 0.13 | 1015.5 | |
| 20260905120640 | -17 | 270 | 8.0 | 19.3 | 0.00 | 0.13 | 0.13 | 1015.4 | |
| 20260905115843 | -17 | 270 | 4.8 | 16.1 | 0.00 | 0.13 | 0.13 | 1015.3 | |
| 20260905115043 | -17 | 225 | 1.6 | 12.9 | 0.00 | 0.13 | 0.13 | 1015.4 | |
| 20260905114245 | -17 | 270 | 6.4 | 24.1 | 0.00 | 0.13 | 0.13 | 1015.7 | |
| 20260905113446 | -17 | 270 | 4.8 | 20.9 | 0.00 | 0.13 | 0.13 | 1015.6 | |
| 20260905112648 | -17 | 270 | 6.4 | 17.7 | 0.00 | 0.13 | 0.13 | 1015.6 | |
| 20260905111854 | -17 | 270 | 8.0 | 14.5 | 0.00 | 0.13 | 0.13 | 1015.7 | |
| 20260905111056 | -17 | 135 | 3.2 | 14.5 | 0.00 | 0.13 | 0.13 | 1016.0 | |
| 20260905110258 | -17 | 45 | 1.6 | 17.7 | 0.00 | 0.13 | 0.13 | 1015.7 | |
| 20260905105501 | -17 | 270 | 17.7 | 27.4 | 0.00 | 0.13 | 0.13 | 1015.8 | |
| 20260905104701 | -17 | 270 | 9.7 | 19.3 | 0.00 | 0.13 | 0.13 | 1016.0 | |
| 20260905103904 | -17 | 203 | 3.2 | 17.7 | 0.00 | 0.13 | 0.13 | 1015.7 | |
| 20260905103103 | -17 | 315 | 8.0 | 16.1 | 0.00 | 0.13 | 0.13 | 1015.9 | |
| 20260905102306 | -17 | 270 | 6.4 | 17.7 | 0.00 | 0.13 | 0.13 | 1015.9 | |
| 20260905101506 | -17 | 270 | 8.0 | 20.9 | 0.00 | 0.13 | 0.13 | 1016.0 | |
| 20260905100707 | -17 | 225 | 6.4 | 12.9 | 0.00 | 0.13 | 0.13 | 1016.1 | |
| 20260905095908 | -17 | 135 | 9.7 | 12.9 | 0.00 | 0.13 | 0.13 | 1016.5 | |
| 20260905095108 | -17 | 270 | 3.2 | 9.7 | 0.00 | 0.13 | 0.13 | 1016.6 | |
| 20260905094312 | -17 | 248 | 1.6 | 9.7 | 0.00 | 0.13 | 0.13 | 1016.5 | |
| 20260905093511 | -17 | 135 | 1.6 | 8.0 | 0.00 | 0.13 | 0.13 | 1016.6 | |
| 20260905092713 | -17 | 45 | 3.2 | 6.4 | 0.00 | 0.13 | 0.13 | 1016.6 | |
| 20260905091915 | -17 | 315 | 3.2 | 9.7 | 0.00 | 0.13 | 0.13 | 1016.2 | |
| 20260905091116 | -17 | 270 | 1.6 | 9.7 | 0.00 | 0.13 | 0.13 | 1016.5 | |
| 20260905090319 | -17 | 270 | 8.0 | 12.9 | 0.00 | 0.13 | 0.13 | 1016.7 | |
| 20260905085521 | -17 | 225 | 1.6 | 17.7 | 0.00 | 0.13 | 0.13 | 1016.4 | |
| 20260905084723 | -17 | 0 | 6.4 | 14.5 | 0.00 | 0.13 | 0.13 | 1016.5 | |
| 20260905083920 | -17 | 315 | 6.4 | 20.9 | 0.00 | 0.13 | 0.13 | 1016.3 | |
| 20260905083122 | -17 | 315 | 8.0 | 14.5 | 0.00 | 0.13 | 0.13 | 1016.1 | |
| 20260905082323 | -17 | 135 | 3.2 | 14.5 | 0.00 | 0.13 | 0.13 | 1016.3 | |
| 20260905081522 | -17 | 315 | 3.2 | 6.4 | 0.00 | 0.13 | 0.13 | 1015.6 | |
| 20260905080726 | -17 | 135 | 0.0 | 4.8 | 0.00 | 0.13 | 0.13 | 1016.1 | |
| 20260905075926 | -17 | 315 | 4.8 | 9.7 | 0.00 | 0.13 | 0.13 | 1016.8 | |
| 20260905075128 | -17 | 270 | 3.2 | 8.0 | 0.00 | 0.13 | 0.13 | 1016.4 | |
| 20260905074329 | -17 | 248 | 1.6 | 4.8 | 0.00 | 0.13 | 0.13 | 1016.5 | |
| 20260905073529 | -17 | 0 | 1.6 | 8.0 | 0.00 | 0.13 | 0.13 | 1016.6 | |
| 20260905072730 | -17 | 90 | 6.4 | 8.0 | 0.00 | 0.13 | 0.13 | 1016.4 | |
| 20260905071930 | -17 | 293 | 1.6 | 6.4 | 0.00 | 0.13 | 0.13 | 1016.5 | |
| 20260905071129 | -17 | 135 | 1.6 | 6.4 | 0.00 | 0.13 | 0.13 | 1016.6 | |
| 20260905070329 | -17 | 315 | 1.6 | 9.7 | 0.00 | 0.13 | 0.13 | 1016.7 | |
| 20260905065530 | -17 | 293 | 3.2 | 8.0 | 0.00 | 0.13 | 0.13 | 1016.7 | |
| 20260905064732 | -17 | 0 | 8.0 | 11.3 | 0.00 | 0.13 | 0.13 | 1016.6 | |
| 20260905063930 | -17 | 293 | 6.4 | 9.7 | 0.00 | 0.13 | 0.13 | 1017.0 | |
| 20260905063134 | -17 | 315 | 3.2 | 4.8 | 0.00 | 0.13 | 0.13 | 1017.1 | |
| 20260905062331 | -17 | 0 | 0.0 | 6.4 | 0.00 | 0.13 | 0.13 | 1016.8 | |
| 20260905061530 | -17 | 225 | 0.0 | 3.2 | 0.00 | 0.13 | 0.13 | 1016.5 | |
| 20260905060733 | -17 | 45 | 3.2 | 4.8 | 0.00 | 0.13 | 0.13 | 1016.7 | |
| 20260905055936 | -17 | 225 | 3.2 | 8.0 | 0.08 | 0.13 | 0.13 | 1016.7 | |
| 20260905055141 | -17 | 270 | 4.8 | 12.9 | 0.08 | 0.13 | 0.13 | 1015.8 | |
| 20260905054342 | -17 | 338 | 4.8 | 9.7 | 0.08 | 0.13 | 0.13 | 1016.0 | |
| 20260905053543 | -17 | 270 | 6.4 | 12.9 | 0.05 | 0.10 | 0.10 | 1016.6 | |
| 20260905052743 | -17 | 270 | 0.0 | 3.2 | 0.05 | 0.10 | 0.10 | 1016.1 | |
| 20260905051948 | -17 | 270 | 1.6 | 6.4 | 0.05 | 0.10 | 0.10 | 1016.1 | |
| 20260905051146 | -17 | 68 | 1.6 | 3.2 | 0.03 | 0.08 | 0.08 | 1015.9 | |
| 20260905050347 | -17 | 68 | 0.0 | 6.4 | 0.03 | 0.08 | 0.08 | 1016.2 | |
| 20260905045551 | -17 | 135 | 3.2 | 3.2 | 0.00 | 0.05 | 0.05 | 1015.9 | |
| 20260905044750 | -17 | 270 | 1.6 | 3.2 | 0.00 | 0.05 | 0.05 | 1015.5 | |
| 20260905043954 | -17 | 315 | 1.6 | 6.4 | 0.00 | 0.05 | 0.05 | 1015.3 | |
| 20260905043156 | -17 | 225 | 0.0 | 1.6 | 0.00 | 0.05 | 0.05 | 1015.3 | |
| 20260905042357 | -17 | 315 | 0.0 | 3.2 | 0.00 | 0.05 | 0.05 | 1015.0 | |
| 20260905041559 | -17 | 270 | 3.2 | 3.2 | 0.00 | 0.05 | 0.05 | 1015.0 | |
| 20260905040802 | -17 | 270 | 0.0 | 1.6 | 0.00 | 0.05 | 0.05 | 1014.4 | |
| 20260905040003 | -17 | 270 | 0.0 | 4.8 | 0.05 | 0.05 | 0.05 | 1014.6 | |
| 20260905035204 | -17 | 270 | 1.6 | 1.6 | 0.05 | 0.05 | 0.05 | 1014.4 | |
| 20260905034407 | -17 | 315 | 1.6 | 1.6 | 0.05 | 0.05 | 0.05 | 1015.1 | |
| 20260905033612 | -17 | 270 | 0.0 | 0.0 | 0.05 | 0.05 | 0.05 | 1013.9 | |
| 20260905032810 | -17 | 270 | 0.0 | 1.6 | 0.05 | 0.05 | 0.05 | 1014.0 | |
| 20260905032011 | -17 | 225 | 0.0 | 3.2 | 0.05 | 0.05 | 0.05 | 1014.0 | |
| 20260905031212 | -17 | 270 | 0.0 | 4.8 | 0.03 | 0.03 | 0.03 | 1014.2 | |
| 20260905030413 | -17 | 90 | 1.6 | 8.0 | 0.00 | 0.00 | 0.00 | 1014.4 | |
| 20260905025614 | -17 | 0 | 3.2 | 6.4 | 0.00 | 0.00 | 0.00 | 1013.8 | |
| 20260905024817 | -17 | 90 | 1.6 | 3.2 | 0.00 | 0.00 | 0.00 | 1013.7 | |
| 20260905024015 | -17 | 90 | 1.6 | 3.2 | 0.00 | 0.00 | 0.00 | 1013.5 | |
| 20260905023215 | -17 | 90 | 0.0 | 1.6 | 0.00 | 0.00 | 0.00 | 1013.8 | |
| 20260905022416 | -17 | 315 | 0.0 | 4.8 | 0.00 | 0.00 | 0.00 | 1013.3 | |
| 20260905021616 | -17 | 180 | 1.6 | 4.8 | 0.00 | 0.00 | 0.00 | 1013.3 | |
| 20260905020816 | -17 | 135 | 1.6 | 6.4 | 0.00 | 0.00 | 0.00 | 1013.1 | |
| 20260905020014 | -17 | 0 | 1.6 | 4.8 | 0.00 | 0.00 | 0.00 | 1012.4 | |
| 20260905015216 | -17 | 45 | 3.2 | 6.4 | 0.00 | 0.00 | 0.00 | 1012.6 | |
| 20260905014416 | -17 | 315 | 1.6 | 12.9 | 0.00 | 0.00 | 0.00 | 1012.5 | |
| 20260905013618 | -17 | 90 | 4.8 | 11.3 | 0.00 | 0.00 | 0.00 | 1012.6 | |
| 20260905012818 | -17 | 90 | 1.6 | 6.4 | 0.00 | 0.00 | 0.00 | 1012.6 | |
| 20260905012010 | -17 | 90 | 4.8 | 12.9 | 0.00 | 0.00 | 0.00 | 1012.6 | |
| 20260905011209 | -17 | 45 | 0.0 | 11.3 | 0.00 | 0.00 | 0.00 | 1012.5 | |
| 20260905010412 | -17 | 315 | 1.6 | 9.7 | 0.00 | 0.00 | 0.00 | 1012.3 | |
| 20260905005615 | -17 | 270 | 3.2 | 11.3 | 0.00 | 0.00 | 0.00 | 1012.5 | |
| 20260905004818 | -17 | 315 | 6.4 | 9.7 | 0.00 | 0.00 | 0.00 | 1012.1 | |
| 20260905004018 | -17 | 45 | 4.8 | 8.0 | 0.00 | 0.00 | 0.00 | 1012.1 | |
| 20260905003218 | -17 | 45 | 3.2 | 12.9 | 0.00 | 0.00 | 0.00 | 1011.7 | |
| 20260905002418 | -17 | 45 | 4.8 | 9.7 | 0.00 | 0.00 | 0.00 | 1011.6 | |
| 20260905001619 | -17 | 45 | 3.2 | 24.1 | 0.00 | 0.00 | 0.00 | 1011.4 | |
| 20260905000823 | -17 | 135 | 4.8 | 12.9 | 0.00 | 0.00 | 0.00 | 1010.9 | |
| 20260905000025 | -17 | 135 | 4.8 | 11.3 | 0.00 | 0.00 | 0.00 | 1010.6 | |
| 20260904235227 | -17 | 45 | 4.8 | 11.3 | 0.00 | 0.00 | 0.00 | 1010.4 | |
| 20260904234425 | -17 | 90 | 0.0 | 1.6 | 0.00 | 0.00 | 0.00 | 1010.0 | |
| 20260904233625 | -17 | 90 | 0.0 | 0.0 | 0.00 | 0.00 | 0.00 | 1009.8 | |
| 20260904232828 | -17 | 68 | 0.0 | 1.6 | 0.00 | 0.00 | 0.00 | 1009.8 | |
| 20260904232029 | -17 | 90 | 0.0 | 1.6 | 0.00 | 0.00 | 0.00 | 1009.8 | |
| 20260904231230 | -17 | 90 | 0.0 | 0.0 | 0.00 | 0.00 | 0.00 | 1009.8 | |
| 20260904230431 | -17 | 90 | 0.0 | 1.6 | 0.00 | 0.00 | 0.00 | 1009.9 | |
| 20260904225636 | -17 | 90 | 0.0 | 1.6 | 0.00 | 0.00 | 0.00 | 1009.8 | |
| 20260904224838 | -17 | 90 | 0.0 | 0.0 | 0.00 | 0.00 | 0.00 | 1009.8 | |
| 20260904224037 | -17 | 90 | 0.0 | 0.0 | 0.00 | 0.00 | 0.00 | 1009.8 | |
| 20260904223240 | -17 | 90 | 0.0 | 0.0 | 0.00 | 0.00 | 0.00 | 1009.8 | |
| 20260904222440 | -17 | 135 | 0.0 | 0.0 | 0.00 | 0.00 | 0.00 | 1009.8 | |
| 20260904221639 | -17 | 203 | 0.0 | 0.0 | 0.00 | 0.00 | 0.00 | 1009.7 | |
| 20260904220842 | -17 | 203 | 0.0 | 0.0 | 0.00 | 0.00 | 0.00 | 1009.7 | |
| 20260904220045 | -17 | 203 | 0.0 | 0.0 | 0.00 | 0.00 | 0.00 | 1009.5 | |
| 20260904215246 | -17 | 225 | 0.0 | 1.6 | 0.00 | 0.00 | 0.00 | 1009.4 | |
| 20260904214448 | -17 | 0 | 0.0 | 3.2 | 0.00 | 0.00 | 0.00 | 1009.3 | |
| 20260904213648 | -17 | 0 | 0.0 | 4.8 | 0.00 | 0.00 | 0.00 | 1009.5 | |
| 20260904212850 | -17 | 180 | 0.0 | 1.6 | 0.00 | 0.00 | 0.00 | 1009.5 | |
| 20260904212049 | -17 | 225 | 0.0 | 1.6 | 0.00 | 0.00 | 0.00 | 1009.6 | |
| 20260904211251 | -17 | 270 | 1.6 | 1.6 | 0.00 | 0.00 | 0.00 | 1009.5 | |
| 20260904210454 | -17 | 90 | 0.0 | 1.6 | 0.00 | 0.00 | 0.00 | 1009.5 | |
| 20260904205653 | -17 | 90 | 0.0 | 1.6 | 0.00 | 0.00 | 0.00 | 1009.4 | |
| 20260904204849 | -17 | 315 | 0.0 | 1.6 | 0.00 | 0.00 | 0.00 | 1009.3 | |
| 20260904204045 | -17 | 135 | 0.0 | 0.0 | 0.00 | 0.00 | 0.00 | 1009.4 | |
| 20260904203246 | -17 | 45 | 0.0 | 1.6 | 0.00 | 0.00 | 0.00 | 1009.4 | |
| 20260904202444 | -17 | 270 | 0.0 | 3.2 | 0.00 | 0.00 | 0.00 | 1009.4 | |
| 20260904201646 | -17 | 45 | 0.0 | 1.6 | 0.00 | 0.00 | 0.00 | 1009.5 | |
| 20260904200849 | -17 | 90 | 0.0 | 1.6 | 0.00 | 0.00 | 0.00 | 1009.5 | |
| 20260904200051 | -17 | 90 | 0.0 | 1.6 | 0.00 | 0.00 | 0.00 | 1009.5 | |
| 20260904195253 | -17 | 90 | 0.0 | 0.0 | 0.00 | 0.00 | 0.00 | 1009.5 | |
| 20260904194453 | -17 | 45 | 0.0 | 0.0 | 0.00 | 0.00 | 0.00 | 1009.4 | |
| 20260904193653 | -17 | 45 | 0.0 | 3.2 | 0.00 | 0.00 | 0.00 | 1009.4 | |
| 20260904192855 | -17 | 315 | 0.0 | 1.6 | 0.00 | 0.00 | 0.00 | 1009.4 | |
| 20260904192057 | -17 | 293 | 0.0 | 0.0 | 0.00 | 0.00 | 0.00 | 1009.7 | |
| 20260904191257 | -17 | 315 | 0.0 | 0.0 | 0.00 | 0.00 | 0.00 | 1009.7 | |
| 20260904190459 | -17 | 270 | 0.0 | 4.8 | 0.00 | 0.00 | 0.00 | 1009.6 | |
| 20260904185659 | -17 | 270 | 0.0 | 0.0 | 0.00 | 0.00 | 0.00 | 1009.6 | |
| 20260904184855 | -17 | 135 | 0.0 | 0.0 | 0.00 | 0.00 | 0.00 | 1009.5 | |
| 20260904184041 | -17 | 135 | 0.0 | 1.6 | 0.00 | 0.00 | 0.00 | 1009.4 |